Change the Weather History Date:

Sunday, May 26, 2013

  Actual Average Record
Temperature  
Mean Temperature 68 °F -  
Max Temperature 71 °F - - ()
Min Temperature 66 °F - - ()
Cooling Degree Days 4    
Growing Degree Days 18 (Base 50)    
Moisture  
Dew Point 62 °F    
Average Humidity 77    
Maximum Humidity 83    
Minimum Humidity 62    
Precipitation  
Precipitation 0.00 in - - ()
Sea Level Pressure  
Sea Level Pressure 30.09 in    
Wind  
Wind Speed 25 mph ()    
Max Wind Speed 36 mph    
Max Gust Speed -    
T = Trace of Precipitation, MM = Missing Value Source: Averaged Metar Reports

Daily Weather History Graph

Daily Weather History Graph

Search for Another Location

Airport or City:

Trip Planner

Search our weather history database for the weather conditions in past years. The results will help you decide how hot, cold, wet, or windy it might be!

Date:

Astronomy

May. 26, 2013 Rise Set
Actual Time 6:30 AM AEST 5:32 PM AEST
Civil Twilight 6:06 AM AEST 5:55 PM AEST
Nautical Twilight 5:39 AM AEST 6:22 PM AEST
Astronomical Twilight 5:12 AM AEST 6:49 PM AEST
Moon 6:43 PM AEST (5/26) 7:15 AM AEST (5/26)
Length of Visible Light 11h 49m
Length of Day
11h 01m
Full, 99% of the Moon is Illuminated
May 26
Full
Jun 1
Last Quarter
Jun 9
New
Jun 17
First Quarter
Jun 23
Full

Hourly Weather History & Observations

Time (AEST) Temp. Dew Point Humidity Pressure Visibility Wind Dir Wind Speed Gust Speed Precip Events Conditions
12:00 AM 70 °F 60 °F 62% 30.09 in - SSE 23.0 mph - -  
12:00 AM 69.8 °F 60.8 °F 73% 30.09 in - SSE 23.0 mph - N/A   Unknown
12:30 AM 69.8 °F 60.8 °F 73% 30.09 in - SSE 20.7 mph - N/A   Unknown
1:00 AM 69.8 °F 62.6 °F 78% 30.06 in - SSE 19.6 mph - N/A   Unknown
1:30 AM 69.8 °F 62.6 °F 78% 30.06 in - SSE 20.7 mph - N/A   Unknown
2:00 AM 68.0 °F 60.8 °F 78% 30.06 in - SSE 19.6 mph - N/A   Unknown
2:30 AM 69.8 °F 62.6 °F 78% 30.06 in - SSE 18.4 mph - N/A   Unknown
3:00 AM 69 °F 60 °F 66% 30.06 in - SSE 20.7 mph - -  
3:00 AM 68.0 °F 60.8 °F 78% 30.06 in - SSE 20.7 mph - N/A   Unknown
3:30 AM 68.0 °F 60.8 °F 78% 30.04 in - SSE 24.2 mph - N/A   Unknown
4:00 AM 69.8 °F 60.8 °F 73% 30.04 in - SSE 25.3 mph - N/A   Unknown
4:30 AM 69.8 °F 60.8 °F 73% 30.04 in - SSE 27.6 mph - N/A   Unknown
5:00 AM 68.0 °F 60.8 °F 78% 30.06 in - SSE 27.6 mph - N/A   Unknown
5:30 AM 68.0 °F 60.8 °F 78% 30.06 in - SSE 25.3 mph - N/A   Unknown
6:00 AM 68 °F 60 °F 68% 30.08 in - SSE 27.6 mph - -  
6:00 AM 68.0 °F 59.0 °F 73% 30.06 in - SSE 27.6 mph - N/A   Unknown
6:30 AM 68.0 °F 60.8 °F 78% 30.06 in - SSE 27.6 mph - N/A   Unknown
7:00 AM 68.0 °F 60.8 °F 78% 30.09 in - SE 29.9 mph - N/A   Unknown
7:30 AM 69.8 °F 62.6 °F 78% 30.09 in - SSE 29.9 mph - N/A   Unknown
8:00 AM 68.0 °F 60.8 °F 78% 30.09 in - SSE 32.2 mph - N/A   Unknown
8:30 AM 68.0 °F 62.6 °F 83% 30.12 in - SSE 32.2 mph - N/A   Unknown
9:00 AM 70 °F 64 °F 75% 30.13 in - SSE 31.1 mph - -  
9:00 AM 69.8 °F 64.4 °F 83% 30.12 in - SSE 31.1 mph - N/A   Unknown
9:30 AM 69.8 °F 62.6 °F 78% 30.12 in - SSE 32.2 mph - N/A   Unknown
10:00 AM 69.8 °F 64.4 °F 83% 30.12 in - SSE 31.1 mph - N/A   Unknown
10:30 AM 69.8 °F 64.4 °F 83% 30.12 in - SE 35.7 mph - N/A   Unknown
11:00 AM 71.6 °F 64.4 °F 78% 30.12 in - SE 35.7 mph - N/A   Unknown
11:30 AM 71.6 °F 66.2 °F 83% 30.12 in - SE 34.5 mph - N/A   Unknown
12:00 PM 71 °F 64 °F 73% 30.11 in - SSE 34.5 mph - -  
12:00 PM 69.8 °F 64.4 °F 83% 30.09 in - SSE 34.5 mph - N/A   Unknown
12:30 PM 71.6 °F 64.4 °F 78% 30.09 in - SE 34.5 mph - N/A   Unknown
1:00 PM 71.6 °F 64.4 °F 78% 30.06 in - SSE 33.4 mph - N/A   Unknown
1:30 PM 69.8 °F 64.4 °F 83% 30.06 in - SSE 33.4 mph - N/A   Unknown
2:00 PM 69.8 °F 64.4 °F 83% 30.06 in - SSE 32.2 mph - N/A   Unknown
2:30 PM 69.8 °F 64.4 °F 83% 30.06 in - SE 32.2 mph - N/A   Unknown
3:00 PM 70 °F 64 °F 76% 30.06 in - SE 32.2 mph - -  
3:00 PM 69.8 °F 64.4 °F 83% 30.06 in - SE 32.2 mph - N/A   Unknown
3:30 PM 69.8 °F 62.6 °F 78% 30.06 in - SE 32.2 mph - N/A   Unknown
4:00 PM 69.8 °F 62.6 °F 78% 30.06 in - SE 31.1 mph - N/A   Unknown
4:30 PM 69.8 °F 62.6 °F 78% 30.06 in - SE 31.1 mph - N/A   Unknown
5:00 PM 69.8 °F 64.4 °F 83% 30.06 in - SE 27.6 mph - N/A   Unknown
5:30 PM 69.8 °F 62.6 °F 78% 30.06 in - SE 27.6 mph - N/A   Unknown
6:00 PM 70 °F 63 °F 72% 30.09 in - SE 28.8 mph - -  
6:00 PM 69.8 °F 62.6 °F 78% 30.06 in - SE 28.8 mph - N/A   Unknown
6:30 PM 69.8 °F 60.8 °F 73% 30.09 in - SE 31.1 mph - N/A   Unknown
7:00 PM 69.8 °F 62.6 °F 78% 30.09 in - SE 26.5 mph - N/A   Unknown
7:30 PM 69.8 °F 62.6 °F 78% 30.12 in - SE 28.8 mph - N/A   Unknown
8:00 PM 69.8 °F 60.8 °F 73% 30.12 in - SE 28.8 mph - N/A   Unknown
8:30 PM 71.6 °F 60.8 °F 69% 30.12 in - SE 27.6 mph - N/A   Unknown
9:00 PM 71 °F 62 °F 64% 30.14 in - SE 28.8 mph - -  
9:00 PM 69.8 °F 60.8 °F 73% 30.12 in - SE 28.8 mph - N/A   Unknown
9:30 PM 69.8 °F 62.6 °F 78% 30.12 in - SE 28.8 mph - N/A   Unknown
10:00 PM 69.8 °F 60.8 °F 73% 30.12 in - SE 27.6 mph - N/A   Unknown
10:30 PM 69.8 °F 60.8 °F 73% 30.12 in - SE 26.5 mph - N/A   Unknown
11:00 PM 69.8 °F 62.6 °F 78% 30.12 in - SE 26.5 mph - N/A   Unknown
11:30 PM 69.8 °F 62.6 °F 78% 30.12 in - SE 27.6 mph - N/A   Unknown